Location: Nag� el Ma?a??a
(24.0667°N, 32.8833°E)
Time: 17:11:16
(UTC+00:00)

ATLAS 2AS CENTAUR R/B - Pass Details

Date: 25 September 2021
Orbit: 959 x 1253 km, 63.7° (Epoch: 05 September)

Event Time Altitude Azimuth Distance (km) Brightness Sun altitude
Rises 03:02:22 0° 203° (SSW) 4,117 5.5 -9.0°
Reaches altitude 10° 03:05:05 10° 203° (SSW) 3,179 4.9 -8.4°
Maximum altitude 03:12:50 86° 117° (ESE) 1,256 3.2 -6.6°
Drops below altitude 10° 03:20:41 10° 27° (NNE) 3,215 5.6 -4.8°
Sets 03:23:27 0° 27° (NNE) 4,167 6.2 -4.2°
